FW2897 Weather Reports


Display with metric or nautical units.
time (UTC)temp
F
wind
direction
speed
MPH
gust
MPH
rain 1hr
in
rain 24hr
in
rain mn
in
humidity
%
barometer
mb
20260902141102 72 116 1.0 7.0 0.00 0.50 0.01 92 1020.5
20260902140600 72 117 2.0 6.0 0.00 0.50 0.01 93 1020.6
20260902140048 72 175 1.0 6.0 0.00 0.50 0.01 93 1020.5
20260902135520 72 91 0.0 5.0 0.00 0.50 0.01 93 1020.6
20260902135227 72 117 0.0 4.0 0.00 0.50 0.01 93 1020.7
20260902134439 72 117 0.0 4.0 0.00 0.50 0.01 93 1020.7
20260902134159 72 108 0.0 4.0 0.00 0.50 0.01 93 1020.6
20260902133432 72 172 0.0 3.0 0.00 0.50 0.01 93 1020.4
20260902132904 72 84 1.0 6.0 0.00 0.50 0.01 94 1020.4
20260902132629 71 82 1.0 6.0 0.00 0.50 0.01 94 1020.2
20260902132057 71 114 1.0 3.0 0.00 0.50 0.01 94 1020.3
20260902131332 71 86 0.0 3.0 0.00 0.50 0.01 94 1020.4
20260902131047 71 93 1.0 3.0 0.00 0.50 0.01 94 1020.5
20260902130324 71 106 1.0 5.0 0.00 0.50 0.01 94 1020.4
20260902125755 71 150 1.0 5.0 0.00 0.50 0.01 94 1020.4
20260902125253 71 144 1.0 6.0 0.00 0.50 0.01 94 1020.3
20260902124724 71 106 1.0 6.0 0.00 0.50 0.01 94 1020.3
20260902124222 71 126 1.0 3.0 0.00 0.50 0.01 94 1020.2
20260902123658 71 98 0.0 5.0 0.00 0.50 0.01 94 1020.2
20260902123129 71 107 1.0 5.0 0.00 0.50 0.01 94 1020.2
20260902122849 71 115 1.0 6.0 0.00 0.50 0.01 94 1020.2
20260902122100 71 146 1.0 6.0 0.00 0.50 0.01 94 1020.0
20260902121557 71 77 1.0 5.0 0.00 0.50 0.01 95 1019.9
20260902121029 71 129 0.0 4.0 0.00 0.50 0.01 95 1019.9
20260902121019 71 101 0.0 6.0 0.00 0.50 0.01 95 1019.8
20260902115959 71 88 1.0 6.0 0.00 0.50 0.01 95 1019.6
20260902115457 71 86 1.0 5.0 0.00 0.50 0.01 95 1019.7
20260902114932 71 125 1.0 5.0 0.00 0.50 0.01 94 1019.6
20260902114418 71 94 1.0 5.0 0.00 0.50 0.01 94 1019.7
20260902113840 71 97 0.0 3.0 0.00 0.50 0.01 95 1019.8
20260902113535 71 106 0.0 1.0 0.00 0.50 0.01 95 1019.9
20260902112808 71 141 0.0 1.0 0.00 0.50 0.01 95 1020.0
20260902112317 71 141 0.0 1.0 0.00 0.50 0.01 95 1019.9
20260902111803 71 143 0.0 1.0 0.00 0.50 0.01 95 1019.8
20260902111255 71 163 0.0 0.0 0.00 0.50 0.01 95 1019.8
20260902110751 71 143 0.0 0.0 0.00 0.50 0.01 95 1019.8
20260902110513 71 143 0.0 1.0 0.00 0.50 0.01 94 1019.7
20260902105743 71 146 0.0 1.0 0.00 0.50 0.01 94 1019.8
20260902105219 71 134 0.0 1.0 0.00 0.50 0.01 94 1019.6
20260902104708 71 127 0.0 1.0 0.00 0.50 0.01 94 1019.5
20260902104207 71 101 0.0 2.0 0.00 0.50 0.01 95 1019.6
20260902103922 71 101 0.0 2.0 0.00 0.50 0.01 94 1019.4
20260902103427 71 124 0.0 1.0 0.00 0.50 0.01 95 1019.4
20260902102655 71 124 0.0 1.0 0.00 0.50 0.01 94 1019.4
20260902102156 71 105 0.0 1.0 0.00 0.50 0.01 94 1019.5
20260902101646 71 106 0.0 1.0 0.00 0.50 0.01 94 1019.5
20260902101148 71 100 0.0 1.0 0.00 0.50 0.01 94 1019.4
20260902100625 71 198 0.0 1.0 0.00 0.50 0.01 94 1019.4
20260902100112 71 119 0.0 1.0 0.00 0.50 0.01 94 1019.4
20260902095548 72 226 0.0 1.0 0.00 0.50 0.01 95 1019.3
20260902095049 72 154 0.0 1.0 0.00 0.50 0.01 94 1019.2
20260902094527 72 204 0.0 2.0 0.00 0.50 0.01 95 1019.2
20260902094023 72 89 0.0 2.0 0.00 0.50 0.01 95 1019.2
20260902093525 72 89 0.0 2.0 0.00 0.50 0.01 95 1019.1
20260902093006 72 120 0.0 2.0 0.00 0.50 0.01 95 1019.0
20260902092452 72 144 0.0 1.0 0.00 0.50 0.01 94 1019.0
20260902091921 72 6 0.0 2.0 0.00 0.50 0.01 95 1019.0
20260902091421 72 88 0.0 2.0 0.00 0.50 0.01 94 1018.9
20260902090923 72 105 0.0 3.0 0.00 0.50 0.01 95 1018.9
20260902090658 72 198 0.0 3.0 0.00 0.50 0.01 94 1018.8
20260902090146 72 132 1.0 4.0 0.00 0.50 0.01 94 1018.8
20260902085423 72 160 1.0 5.0 0.00 0.50 0.01 94 1018.8
20260902085121 72 89 1.0 5.0 0.00 0.50 0.01 94 1018.8
20260902084338 72 79 0.0 2.0 0.00 0.50 0.01 94 1018.7
20260902083811 72 30 1.0 4.0 0.00 0.50 0.01 94 1018.6
20260902083526 72 155 0.0 2.0 0.00 0.50 0.01 94 1018.6
20260902083512 72 116 1.0 4.0 0.00 0.50 0.01 94 1018.7
20260902082246 72 108 0.0 1.0 0.00 0.50 0.01 95 1018.5
20260902082001 73 107 0.0 1.0 0.00 0.50 0.01 95 1018.5
20260902081241 73 117 0.0 1.0 0.00 0.50 0.01 95 1018.6
20260902080712 73 93 0.0 2.0 0.00 0.50 0.01 95 1018.6
20260902080432 73 105 0.0 2.0 0.00 0.50 0.01 95 1018.5
20260902075642 73 115 0.0 1.0 0.00 0.50 0.01 95 1018.5
20260902075140 73 115 0.0 1.0 0.00 0.50 0.01 94 1018.6
20260902074614 73 115 0.0 1.0 0.00 0.50 0.01 95 1018.6
20260902074045 73 110 0.0 2.0 0.00 0.50 0.01 95 1018.5
20260902073747 73 103 0.0 2.0 0.00 0.50 0.01 95 1018.3
20260902073443 73 103 0.0 2.0 0.00 0.50 0.01 95 1018.3
20260902072449 73 238 0.0 0.0 0.00 0.50 0.01 95 1018.2
20260902071921 73 238 0.0 0.0 0.00 0.50 0.01 95 1018.2
20260902071644 73 238 0.0 0.0 0.00 0.50 0.01 95 1018.1
20260902071115 73 238 0.0 0.0 0.00 0.50 0.01 95 1018.1
20260902070349 72 238 0.0 0.0 0.00 0.50 0.01 95 1018.0
20260902070338 72 238 0.0 0.0 0.00 0.50 0.01 95 1018.1
20260902065344 72 238 0.0 0.0 0.00 0.50 0.01 95 1018.0
20260902064842 72 238 0.0 0.0 0.00 0.50 0.01 95 1018.0
20260902064315 72 238 0.0 0.0 0.00 0.50 0.01 94 1017.9
20260902063809 72 238 0.0 0.0 0.00 0.50 0.01 94 1017.9
20260902063247 72 238 0.0 0.0 0.00 0.50 0.01 94 1017.7
20260902062719 72 238 0.0 0.0 0.00 0.50 0.01 94 1017.7
20260902062213 72 238 0.0 0.0 0.00 0.50 0.01 94 1017.6
20260902061651 72 238 0.0 0.0 0.00 0.50 0.01 94 1017.6
20260902061135 72 238 0.0 0.0 0.00 0.50 0.01 94 1017.7
20260902060635 72 238 0.0 0.0 0.00 0.50 0.01 94 1017.4
20260902060106 72 238 0.0 0.0 0.00 0.50 0.01 94 1017.6
20260902055604 72 238 0.0 0.0 0.00 0.50 0.01 94 1017.7
20260902055037 72 238 0.0 0.0 0.00 0.50 0.01 94 1017.9
20260902054533 72 238 0.0 0.0 0.00 0.50 0.01 94 1018.0
20260902054022 72 238 0.0 0.0 0.00 0.50 0.01 94 1017.8
20260902053519 72 238 0.0 0.0 0.01 0.50 0.01 94 1017.9
20260902053023 72 238 0.0 0.0 0.01 0.50 0.01 94 1018.0
20260902052453 72 238 0.0 0.0 0.01 0.50 0.01 94 1018.1
20260902051950 72 238 0.0 1.0 0.01 0.50 0.01 94 1018.3
20260902051427 72 238 0.0 0.0 0.01 0.50 0.01 94 1018.0
20260902051139 72 238 0.0 1.0 0.01 0.50 0.01 94 1018.0
20260902050413 72 237 0.0 0.0 0.01 0.50 0.01 94 1018.2
20260902045851 72 237 0.0 0.0 0.01 0.50 0.01 94 1018.4
20260902045345 72 237 0.0 0.0 0.01 0.50 0.01 94 1018.3
20260902044845 72 237 0.0 0.0 0.01 0.50 0.01 94 1018.2
20260902044336 72 237 0.0 0.0 0.01 0.50 0.01 94 1018.2
20260902043834 72 237 0.0 1.0 0.00 0.49 0.01 94 1018.0
20260902043330 72 236 0.0 1.0 0.00 0.49 0.00 94 1017.7
20260902042829 72 237 0.0 0.0 0.00 0.49 0.00 94 1018.2
20260902042259 72 237 0.0 0.0 0.00 0.49 0.00 94 1018.1
20260902041756 72 237 0.0 0.0 0.00 0.49 0.00 94 1018.2
20260902041234 72 237 0.0 0.0 0.00 0.49 0.00 94 1018.3
20260902040947 72 237 0.0 0.0 0.00 0.49 0.00 94 1018.1
20260902040218 72 237 0.0 0.0 0.00 0.49 0.00 94 1018.0
20260902035712 72 237 0.0 2.0 0.00 0.49 0.49 94 1018.2
20260902035211 72 237 0.0 2.0 0.00 0.49 0.49 94 1018.1
20260902034708 72 228 0.0 2.0 0.00 0.49 0.49 94 1018.0
20260902034206 73 233 0.0 2.0 0.00 0.49 0.49 94 1017.9
20260902033859 73 175 0.0 0.0 0.01 0.49 0.49 94 1017.6
20260902033135 73 172 0.0 0.0 0.01 0.49 0.49 94 1017.4
20260902032609 73 172 0.0 0.0 0.01 0.49 0.49 94 1017.4
20260902032057 72 172 0.0 0.0 0.01 0.49 0.49 94 1017.4
20260902031554 72 172 0.0 0.0 0.01 0.49 0.49 94 1017.4
20260902031040 72 171 0.0 0.0 0.01 0.49 0.49 94 1017.3
20260902030529 72 170 0.0 0.0 0.01 0.49 0.49 94 1017.1
20260902030017 72 171 0.0 1.0 0.01 0.49 0.49 94 1017.1
20260902025451 72 170 0.0 1.0 0.01 0.49 0.49 94 1017.1
20260902024948 72 101 0.0 1.0 0.01 0.49 0.49 94 1017.0
20260902024420 72 101 0.0 1.0 0.01 0.49 0.49 94 1016.9
20260902024413 72 101 0.0 2.0 0.00 0.48 0.49 94 1016.9
20260902023355 72 101 0.0 2.0 0.00 0.48 0.48 94 1016.7
20260902022831 72 233 0.0 0.0 0.00 0.48 0.48 93 1016.8
20260902022331 71 233 0.0 1.0 0.00 0.48 0.48 93 1016.7
20260902021819 71 233 0.0 1.0 0.00 0.48 0.48 93 1016.9
20260902021810 71 233 0.0 0.0 0.00 0.48 0.48 93 1016.8
20260902020800 71 235 0.0 1.0 0.00 0.48 0.48 93 1016.4
20260902020527 71 236 0.0 1.0 0.00 0.48 0.48 93 1016.4
20260902015736 71 236 0.0 1.0 0.00 0.48 0.48 93 1016.1
20260902015439 70 236 0.0 2.0 0.02 0.48 0.48 93 1016.0
20260902014655 70 345 0.0 1.0 0.09 0.48 0.48 92 1016.0
20260902014350 70 345 0.0 1.0 0.29 0.48 0.48 92 1016.0
20260902013608 70 285 0.0 1.0 0.36 0.48 0.48 92 1016.0
20260902013045 70 285 0.0 1.0 0.45 0.48 0.48 92 1016.0
20260902012521 70 123 0.0 2.0 0.47 0.48 0.48 91 1015.8
20260902012006 70 213 0.0 2.0 0.48 0.48 0.48 91 1015.9
20260902011728 70 166 0.0 0.0 0.48 0.48 0.48 91 1015.0
20260902011001 71 166 0.0 3.0 0.48 0.48 0.48 90 1014.8
20260902010455 71 293 2.0 7.0 0.48 0.48 0.48 89 1015.4
20260902005934 71 301 2.0 7.0 0.48 0.48 0.48 88 1015.9
20260902005413 72 331 3.0 14.0 0.48 0.48 0.48 89 1015.4
20260902004913 73 278 6.0 25.0 0.42 0.42 0.43 89 1014.8
20260902004639 73 288 8.0 25.0 0.32 0.32 0.34 87 1016.0
20260902003849 75 311 5.0 20.0 0.15 0.15 0.15 86 1016.6
20260902003324 78 288 3.0 20.0 0.06 0.06 0.07 80 1016.6
20260902003026 80 345 2.0 8.0 0.02 0.02 0.03 72 1014.0
20260902002236 82 281 1.0 7.0 0.00 0.00 0.00 71 1014.0
20260902001732 84 129 1.0 6.0 0.00 0.00 0.00 73 1014.2
20260902001229 85 311 1.0 6.0 0.00 0.00 0.00 74 1014.4
20260902000718 86 315 0.0 5.0 0.00 0.00 0.00 75 1014.6
20260902000438 86 296 0.0 1.0 0.00 0.00 0.00 74 1014.1
20260901235945 86 213 0.0 0.0 0.00 0.00 0.00 74 1014.0
20260901235148 86 212 0.0 0.0 0.00 0.00 0.00 74 1013.5
20260901234619 87 212 0.0 0.0 0.00 0.00 0.00 74 1013.3
20260901234341 87 212 0.0 0.0 0.00 0.00 0.00 73 1013.2
20260901233611 87 212 0.0 0.0 0.00 0.00 0.00 73 1013.4
20260901233046 87 212 0.0 0.0 0.00 0.00 0.00 73 1013.5
20260901232531 87 212 0.0 0.0 0.00 0.00 0.00 72 1013.8
20260901232031 88 212 0.0 0.0 0.00 0.00 0.00 72 1013.8
20260901231534 88 212 0.0 0.0 0.00 0.00 0.00 71 1014.1
20260901231033 88 212 0.0 0.0 0.00 0.00 0.00 71 1014.0
20260901230528 88 212 0.0 0.0 0.00 0.00 0.00 71 1013.9
20260901230024 89 212 0.0 0.0 0.00 0.00 0.00 70 1014.0
20260901225520 89 212 0.0 1.0 0.00 0.00 0.00 70 1014.1
20260901224951 89 255 0.0 1.0 0.00 0.00 0.00 69 1013.9
20260901224451 89 283 0.0 1.0 0.00 0.00 0.00 70 1014.0
20260901223924 89 212 0.0 1.0 0.00 0.00 0.00 69 1014.1
20260901223357 90 304 0.0 1.0 0.00 0.00 0.00 69 1014.1
20260901222853 90 300 0.0 1.0 0.00 0.00 0.00 69 1014.0
20260901222334 90 269 0.0 3.0 0.00 0.00 0.00 69 1013.9
20260901222027 90 310 0.0 3.0 0.00 0.00 0.00 69 1014.0
20260901221229 90 311 0.0 4.0 0.00 0.00 0.00 68 1013.9
20260901220728 90 276 0.0 4.0 0.00 0.00 0.00 67 1013.8
20260901220159 90 302 0.0 1.0 0.00 0.00 0.00 68 1013.8
20260901215919 90 301 0.0 1.0 0.00 0.00 0.00 68 1013.9
20260901215131 90 220 0.0 1.0 0.00 0.00 0.00 67 1014.2
20260901214629 91 304 1.0 5.0 0.00 0.00 0.00 67 1014.1
20260901214102 91 179 1.0 5.0 0.00 0.00 0.00 66 1014.2
20260901214025 91 1 0.0 2.0 0.00 0.00 0.00 66 1014.2
20260901213255 91 268 0.0 4.0 0.00 0.00 0.00 66 1014.2
20260901212511 91 252 1.0 4.0 0.00 0.00 0.00 66 1014.3
20260901211959 91 255 0.0 3.0 0.00 0.00 0.00 66 1014.2
20260901211455 91 60 1.0 5.0 0.00 0.00 0.00 66 1014.3
20260901211202 91 285 1.0 5.0 0.00 0.00 0.00 66 1014.3
20260901210407 91 188 0.0 3.0 0.00 0.00 0.00 66 1014.2
20260901205836 91 160 1.0 4.0 0.00 0.00 0.00 65 1014.3
20260901205335 91 257 0.0 4.0 0.00 0.00 0.00 65 1014.4
20260901204805 91 321 0.0 3.0 0.00 0.00 0.00 66 1014.5
20260901204510 91 5 0.0 3.0 0.00 0.00 0.00 66 1014.4
20260901203716 91 244 0.0 3.0 0.00 0.00 0.00 64 1014.5
20260901203147 91 248 1.0 7.0 0.00 0.00 0.00 64 1014.7
20260901202646 91 20 1.0 7.0 0.00 0.00 0.00 64 1014.7
20260901202119 91 233 1.0 6.0 0.00 0.00 0.00 64 1014.7
20260901201616 91 298 1.0 6.0 0.00 0.00 0.00 65 1014.7
20260901201048 91 306 1.0 6.0 0.00 0.00 0.00 64 1014.7
20260901200546 91 345 1.0 6.0 0.00 0.00 0.00 64 1014.6
20260901200033 91 155 1.0 5.0 0.00 0.00 0.00 64 1014.6
20260901195548 91 300 1.0 4.0 0.00 0.00 0.00 63 1014.6
20260901195008 91 293 1.0 3.0 0.00 0.00 0.00 63 1014.8
20260901194733 91 251 1.0 4.0 0.00 0.00 0.00 64 1014.9
20260901194003 91 217 1.0 5.0 0.00 0.00 0.00 65 1015.0
20260901193438 91 314 1.0 5.0 0.00 0.00 0.00 66 1015.1
20260901192912 90 255 1.0 4.0 0.00 0.00 0.00 67 1015.1
20260901192343 90 86 1.0 3.0 0.00 0.00 0.00 68 1015.2
20260901191843 89 287 2.0 6.0 0.00 0.00 0.00 67 1015.2
20260901191313 89 63 2.0 6.0 0.00 0.01 0.00 67 1015.2
20260901190815 90 198 1.0 5.0 0.00 0.01 0.00 65 1015.2
20260901190243 90 169 1.0 5.0 0.00 0.01 0.00 68 1015.4
20260901190003 90 236 1.0 5.0 0.00 0.01 0.00 67 1015.3
20260901185219 89 167 1.0 3.0 0.00 0.01 0.00 68 1015.3
20260901184650 90 228 1.0 6.0 0.00 0.01 0.00 67 1015.5
20260901184414 90 174 2.0 6.0 0.00 0.01 0.00 67 1015.5
20260901183621 89 174 2.0 9.0 0.00 0.01 0.00 67 1015.6
20260901183120 89 110 2.0 9.0 0.00 0.01 0.00 68 1015.5
20260901182621 89 55 2.0 6.0 0.00 0.01 0.00 68 1015.5
20260901182105 89 79 2.0 6.0 0.00 0.01 0.00 68 1015.5
20260901181602 90 173 1.0 5.0 0.00 0.01 0.00 66 1015.5
20260901181307 90 315 1.0 4.0 0.00 0.01 0.00 65 1015.7
20260901180808 89 355 1.0 5.0 0.00 0.01 0.00 66 1015.7
20260901180032 89 4 1.0 5.0 0.00 0.01 0.00 65 1015.6
20260901175544 89 293 0.0 3.0 0.00 0.01 0.00 66 1015.7
20260901175258 89 285 1.0 3.0 0.00 0.01 0.00 66 1015.8
20260901174503 88 217 1.0 5.0 0.00 0.01 0.00 69 1015.8
20260901174000 88 329 0.0 5.0 0.00 0.01 0.00 70 1015.8
20260901173455 88 252 0.0 3.0 0.00 0.01 0.00 70 1015.9
20260901172957 87 181 0.0 3.0 0.00 0.01 0.00 72 1016.0
20260901172920 87 193 0.0 3.0 0.00 0.01 0.00 73 1016.1
20260901171935 86 302 0.0 2.0 0.00 0.01 0.00 76 1016.1
20260901171418 85 182 1.0 2.0 0.00 0.01 0.00 76 1016.0
20260901170902 85 151 0.0 2.0 0.00 0.01 0.00 76 1016.1
20260901170359 85 200 0.0 2.0 0.00 0.01 0.00 76 1016.1
20260901165837 85 131 0.0 1.0 0.00 0.01 0.00 76 1016.3
20260901165558 85 283 0.0 0.0 0.00 0.01 0.00 75 1016.3
20260901164814 85 215 0.0 0.0 0.00 0.01 0.00 79 1016.3
20260901164249 85 215 0.0 0.0 0.00 0.01 0.00 79 1016.4
20260901163723 85 215 0.0 1.0 0.00 0.01 0.00 78 1016.4
20260901163403 84 218 0.0 2.0 0.00 0.01 0.00 79 1016.6
20260901163356 84 215 0.0 1.0 0.00 0.01 0.00 79 1016.5
20260901162411 83 193 0.0 2.0 0.00 0.01 0.00 79 1016.6
20260901161650 83 174 0.0 2.0 0.00 0.01 0.00 80 1016.6
20260901161125 83 103 0.0 2.0 0.00 0.01 0.00 80 1016.6
20260901160820 83 131 0.0 2.0 0.00 0.01 0.00 79 1016.5
20260901160104 83 211 1.0 4.0 0.00 0.01 0.00 79 1016.6
20260901155819 83 203 0.0 4.0 0.00 0.01 0.00 78 1016.6
20260901155023 83 115 1.0 3.0 0.00 0.01 0.00 77 1016.6
20260901154511 84 223 1.0 6.0 0.00 0.01 0.00 76 1016.6
20260901154012 85 233 2.0 6.0 0.00 0.01 0.00 75 1016.6
20260901153445 85 115 1.0 4.0 0.00 0.01 0.00 73 1016.5
20260901152922 86 161 1.0 5.0 0.00 0.01 0.00 73 1016.7
20260901152353 86 180 1.0 5.0 0.00 0.01 0.00 72 1016.9
20260901151849 86 349 0.0 3.0 0.00 0.01 0.00 73 1017.0
20260901151325 86 30 0.0 3.0 0.00 0.01 0.00 73 1017.1
20260901150756 85 230 0.0 3.0 0.00 0.01 0.00 74 1017.0
20260901150255 85 282 0.0 3.0 0.00 0.01 0.00 74 1017.0
20260901145726 84 223 0.0 3.0 0.00 0.01 0.00 77 1017.2
20260901145447 83 286 1.0 3.0 0.00 0.01 0.00 77 1017.1
20260901144658 83 309 1.0 3.0 0.00 0.01 0.00 78 1017.2
20260901144158 83 245 0.0 3.0 0.00 0.01 0.00 78 1017.1
20260901143626 82 317 1.0 4.0 0.00 0.01 0.00 80 1017.1
20260901143124 82 285 1.0 4.0 0.00 0.01 0.00 80 1017.2
20260901142556 81 288 1.0 5.0 0.00 0.01 0.00 82 1017.1
20260901142055 80 291 0.0 5.0 0.00 0.01 0.00 83 1017.2
20260901141527 80 309 0.0 1.0 0.00 0.01 0.00 84 1017.0